| time (UTC) | temp F | wind direction | speed MPH | gust MPH | rain 1hr in | rain 24hr in | rain mn in | humidity % | barometer mb |
| 20260506101831 | 45 | 19 | 0.0 | 5.0 | 0.00 | 0.18 | 0.18 | 99 | 1007.4 |
| 20260506101327 | 45 | 255 | 2.0 | 3.0 | 0.00 | 0.18 | 0.18 | 99 | 1007.7 |
| 20260506100825 | 45 | 29 | 0.0 | 2.0 | 0.00 | 0.18 | 0.18 | 99 | 1007.9 |
| 20260506100323 | 45 | 22 | 0.0 | 3.0 | 0.00 | 0.18 | 0.18 | 99 | 1007.9 |
| 20260506095822 | 45 | 357 | 0.0 | 3.0 | 0.00 | 0.18 | 0.18 | 99 | 1007.6 |
| 20260506095318 | 45 | 306 | 0.0 | 2.0 | 0.00 | 0.18 | 0.18 | 99 | 1007.3 |
| 20260506094815 | 45 | 8 | 0.0 | 2.0 | 0.00 | 0.18 | 0.18 | 99 | 1007.1 |
| 20260506094314 | 45 | 53 | 0.0 | 2.0 | 0.02 | 0.18 | 0.18 | 99 | 1007.1 |
| 20260506093811 | 45 | 349 | 1.0 | 2.0 | 0.02 | 0.18 | 0.18 | 99 | 1006.9 |
| 20260506093308 | 45 | 59 | 0.0 | 3.0 | 0.02 | 0.17 | 0.17 | 99 | 1007.3 |
| 20260506092806 | 45 | 39 | 0.0 | 2.0 | 0.02 | 0.17 | 0.17 | 99 | 1007.2 |
| 20260506092306 | 45 | 44 | 0.0 | 2.0 | 0.00 | 0.17 | 0.17 | 99 | 1007.3 |
| 20260506091801 | 45 | 89 | 0.0 | 2.0 | 0.00 | 0.17 | 0.17 | 99 | 1007.6 |
| 20260506091258 | 45 | 209 | 0.0 | 3.0 | 0.00 | 0.17 | 0.17 | 99 | 1007.6 |
| 20260506090756 | 45 | 55 | 0.0 | 2.0 | 0.00 | 0.17 | 0.17 | 99 | 1007.7 |
| 20260506090253 | 45 | 193 | 0.0 | 2.0 | 0.00 | 0.17 | 0.17 | 99 | 1007.9 |
| 20260506085749 | 45 | 209 | 0.0 | 3.0 | 0.00 | 0.17 | 0.17 | 99 | 1007.6 |
| 20260506085246 | 45 | 254 | 0.0 | 4.0 | 0.02 | 0.17 | 0.17 | 99 | 1007.6 |
| 20260506084742 | 45 | 201 | 0.0 | 4.0 | 0.02 | 0.17 | 0.17 | 99 | 1007.8 |
| 20260506084239 | 45 | 229 | 1.0 | 2.0 | 0.00 | 0.17 | 0.17 | 99 | 1007.5 |
| 20260506083736 | 45 | 247 | 0.0 | 3.0 | 0.00 | 0.17 | 0.17 | 99 | 1007.5 |
| 20260506083234 | 45 | 145 | 0.0 | 2.0 | 0.00 | 0.17 | 0.17 | 99 | 1007.3 |
| 20260506082731 | 45 | 205 | 0.0 | 3.0 | 0.02 | 0.17 | 0.17 | 99 | 1007.4 |
| 20260506082226 | 45 | 212 | 3.0 | 7.0 | 0.05 | 0.17 | 0.17 | 99 | 1007.4 |
| 20260506081724 | 46 | 343 | 2.0 | 4.0 | 0.05 | 0.16 | 0.16 | 99 | 1007.3 |
| 20260506081221 | 46 | 33 | 0.0 | 3.0 | 0.07 | 0.16 | 0.16 | 99 | 1007.2 |
| 20260506080719 | 46 | 228 | 3.0 | 3.0 | 0.07 | 0.15 | 0.15 | 99 | 1007.4 |
| 20260506080215 | 46 | 64 | 0.0 | 2.0 | 0.07 | 0.15 | 0.15 | 99 | 1007.7 |
| 20260506073154 | 46 | 249 | 0.0 | 4.0 | 0.05 | 0.11 | 0.11 | 99 | 1007.6 |
| 20260506072650 | 46 | 198 | 0.0 | 3.0 | 0.05 | 0.11 | 0.11 | 99 | 1007.6 |
| 20260506072148 | 46 | 89 | 0.0 | 4.0 | 0.05 | 0.10 | 0.10 | 99 | 1007.5 |
| 20260506071645 | 46 | 106 | 1.0 | 7.0 | 0.07 | 0.10 | 0.10 | 99 | 1007.4 |
| 20260506071143 | 46 | 244 | 1.0 | 3.0 | 0.07 | 0.09 | 0.09 | 99 | 1007.5 |
| 20260506070639 | 46 | 337 | 0.0 | 3.0 | 0.05 | 0.09 | 0.09 | 99 | 1007.5 |
| 20260506070137 | 46 | 172 | 2.0 | 3.0 | 0.05 | 0.08 | 0.08 | 99 | 1007.6 |
| 20260506062114 | 46 | 133 | 0.0 | 2.0 | 0.02 | 0.06 | 0.06 | 99 | 1007.0 |
| 20260506061609 | 46 | 180 | 0.0 | 2.0 | 0.05 | 0.06 | 0.06 | 99 | 1007.5 |
| 20260506061108 | 46 | 224 | 0.0 | 1.0 | 0.02 | 0.06 | 0.06 | 99 | 1007.7 |
| 20260506060606 | 46 | 116 | 0.0 | 2.0 | 0.00 | 0.05 | 0.05 | 99 | 1007.8 |
| 20260506051034 | 46 | 80 | 0.0 | 2.0 | 0.05 | 0.03 | 0.03 | 99 | 1007.6 |
| 20260506050532 | 46 | 148 | 0.0 | 2.0 | 0.02 | 0.03 | 0.03 | 99 | 1007.7 |
| 20260506045023 | 46 | 27 | 0.0 | 2.0 | 0.05 | 0.02 | 0.02 | 99 | 1007.7 |
| 20260506044521 | 46 | 30 | 2.0 | 3.0 | 0.02 | 0.02 | 0.02 | 99 | 1007.6 |
| 20260506044017 | 47 | 78 | 1.0 | 2.0 | 0.02 | 0.01 | 0.01 | 99 | 1007.9 |
| 20260506043514 | 47 | 89 | 0.0 | 3.0 | 0.02 | 0.01 | 0.01 | 99 | 1007.7 |
| 20260506043013 | 47 | 58 | 1.0 | 3.0 | 0.02 | 0.01 | 0.01 | 99 | 1007.9 |
| 20260506042512 | 46 | 32 | 1.0 | 2.0 | 0.02 | 0.01 | 0.01 | 99 | 1007.7 |
| 20260506042009 | 46 | 100 | 0.0 | 2.0 | 0.00 | 0.00 | 0.00 | 99 | 1007.9 |
| 20260506041508 | 46 | 50 | 0.0 | 1.0 | 0.02 | 0.00 | 0.00 | 99 | 1008.0 |
| 20260506041004 | 46 | 186 | 0.0 | 1.0 | 0.02 | 0.00 | 0.00 | 99 | 1008.0 |
| 20260506040502 | 46 | 99 | 0.0 | 2.0 | 0.02 | 0.00 | 0.00 | 98 | 1008.1 |
| 20260506035957 | 46 | 304 | 0.0 | 4.0 | 0.05 | 1.20 | 1.20 | 98 | 1008.1 |
| 20260506035455 | 47 | 354 | 2.0 | 3.0 | 0.05 | 1.19 | 1.19 | 98 | 1008.2 |
| 20260506034951 | 47 | 50 | 0.0 | 2.0 | 0.05 | 1.19 | 1.19 | 99 | 1008.4 |
| 20260506034449 | 47 | 15 | 0.0 | 2.0 | 0.07 | 1.19 | 1.19 | 99 | 1008.1 |
| 20260506033946 | 47 | 139 | 1.0 | 2.0 | 0.07 | 1.18 | 1.18 | 99 | 1008.5 |
| 20260506033443 | 47 | 144 | 0.0 | 2.0 | 0.05 | 1.17 | 1.17 | 99 | 1008.5 |
| 20260506032939 | 47 | 342 | 0.0 | 3.0 | 0.05 | 1.17 | 1.17 | 99 | 1008.5 |
| 20260506032437 | 48 | 353 | 0.0 | 3.0 | 0.07 | 1.17 | 1.17 | 99 | 1008.8 |
| 20260506031933 | 48 | 186 | 0.0 | 4.0 | 0.12 | 1.16 | 1.16 | 98 | 1008.8 |
| 20260506031431 | 48 | 234 | 1.0 | 3.0 | 0.09 | 1.15 | 1.15 | 98 | 1008.7 |
| 20260506030928 | 48 | 345 | 1.0 | 2.0 | 0.09 | 1.14 | 1.14 | 99 | 1008.3 |
| 20260506030426 | 48 | 269 | 0.0 | 2.0 | 0.09 | 1.13 | 1.13 | 99 | 1008.4 |
| 20260506025923 | 48 | 230 | 0.0 | 2.0 | 0.07 | 1.13 | 1.13 | 99 | 1008.3 |
| 20260506025420 | 48 | 22 | 1.0 | 2.0 | 0.12 | 1.12 | 1.12 | 99 | 1008.4 |
| 20260506024916 | 48 | 290 | 0.0 | 2.0 | 0.17 | 1.11 | 1.11 | 99 | 1008.5 |
| 20260506024414 | 49 | 72 | 0.0 | 2.0 | 0.12 | 1.10 | 1.10 | 99 | 1008.7 |
| 20260506023909 | 48 | 332 | 0.0 | 2.0 | 0.14 | 1.08 | 1.08 | 99 | 1008.7 |
| 20260506023407 | 49 | 19 | 0.0 | 2.0 | 0.17 | 1.07 | 1.07 | 99 | 1008.5 |
| 20260506022903 | 49 | 201 | 1.0 | 2.0 | 0.14 | 1.06 | 1.06 | 99 | 1008.5 |
| 20260506022401 | 49 | 2 | 0.0 | 3.0 | 0.21 | 1.05 | 1.05 | 99 | 1008.4 |
| 20260506021859 | 49 | 0 | 1.0 | 2.0 | 0.26 | 1.03 | 1.03 | 99 | 1008.2 |
| 20260506021355 | 49 | 0 | 0.0 | 2.0 | 0.24 | 1.01 | 1.01 | 98 | 1008.1 |
| 20260506020852 | 49 | 6 | 3.0 | 3.0 | 0.21 | 0.99 | 0.99 | 98 | 1007.9 |
| 20260506020350 | 49 | 22 | 0.0 | 2.0 | 0.17 | 0.97 | 0.97 | 98 | 1008.1 |
| 20260506015847 | 49 | 351 | 1.0 | 2.0 | 0.14 | 0.96 | 0.96 | 98 | 1008.1 |
| 20260506015345 | 49 | 10 | 1.0 | 2.0 | 0.09 | 0.94 | 0.94 | 98 | 1007.9 |
| 20260506014841 | 49 | 56 | 0.0 | 2.0 | 0.02 | 0.93 | 0.93 | 98 | 1007.9 |
| 20260506014338 | 49 | 23 | 1.0 | 2.0 | 0.02 | 0.93 | 0.93 | 98 | 1007.7 |
| 20260506013835 | 49 | 55 | 0.0 | 2.0 | 0.05 | 0.93 | 0.93 | 98 | 1007.6 |
| 20260506013332 | 49 | 37 | 0.0 | 1.0 | 0.09 | 0.93 | 0.93 | 98 | 1007.7 |
| 20260506012828 | 49 | 60 | 1.0 | 2.0 | 0.12 | 0.92 | 0.92 | 98 | 1007.6 |
| 20260506012326 | 49 | 65 | 2.0 | 3.0 | 0.07 | 0.91 | 0.91 | 98 | 1007.5 |
| 20260506011823 | 49 | 84 | 1.0 | 2.0 | 0.05 | 0.90 | 0.90 | 98 | 1007.6 |
| 20260506011319 | 49 | 317 | 0.0 | 2.0 | 0.05 | 0.90 | 0.90 | 98 | 1007.6 |
| 20260506010817 | 49 | 65 | 2.0 | 3.0 | 0.05 | 0.89 | 0.89 | 98 | 1007.6 |
| 20260506010315 | 49 | 37 | 0.0 | 2.0 | 0.02 | 0.89 | 0.89 | 98 | 1007.3 |
| 20260506005811 | 49 | 15 | 2.0 | 2.0 | 0.02 | 0.89 | 0.89 | 98 | 1007.4 |
| 20260506005308 | 49 | 41 | 0.0 | 3.0 | 0.02 | 0.88 | 0.88 | 98 | 1007.6 |
| 20260506004804 | 49 | 315 | 0.0 | 3.0 | 0.02 | 0.88 | 0.88 | 98 | 1007.6 |
| 20260506004302 | 49 | 65 | 2.0 | 4.0 | 0.02 | 0.88 | 0.88 | 98 | 1007.7 |
| 20260506003758 | 49 | 33 | 0.0 | 2.0 | 0.09 | 0.88 | 0.88 | 98 | 1007.5 |
| 20260506003254 | 49 | 62 | 0.0 | 3.0 | 0.09 | 0.87 | 0.87 | 98 | 1007.7 |
| 20260506002751 | 49 | 340 | 0.0 | 4.0 | 0.05 | 0.86 | 0.86 | 98 | 1007.7 |
| 20260506002247 | 49 | 348 | 1.0 | 4.0 | 0.07 | 0.86 | 0.86 | 98 | 1007.6 |
| 20260506001743 | 49 | 37 | 0.0 | 3.0 | 0.07 | 0.85 | 0.85 | 98 | 1007.6 |
| 20260506001241 | 49 | 331 | 3.0 | 5.0 | 0.07 | 0.85 | 0.85 | 98 | 1007.3 |
| 20260506000737 | 49 | 27 | 2.0 | 2.0 | 0.09 | 0.84 | 0.84 | 98 | 1007.2 |
| 20260506000235 | 49 | 353 | 2.0 | 5.0 | 0.12 | 0.83 | 0.83 | 98 | 1007.2 |
| 20260505235732 | 49 | 29 | 0.0 | 3.0 | 0.14 | 0.83 | 0.83 | 98 | 1007.1 |
| 20260505235229 | 49 | 61 | 3.0 | 4.0 | 0.12 | 0.81 | 0.81 | 98 | 1007.0 |
| 20260505234726 | 49 | 42 | 0.0 | 3.0 | 0.09 | 0.80 | 0.80 | 98 | 1006.9 |
| 20260505234223 | 49 | 91 | 4.0 | 6.0 | 0.07 | 0.80 | 0.80 | 98 | 1007.0 |
| 20260505233720 | 50 | 253 | 0.0 | 5.0 | 0.02 | 0.79 | 0.79 | 98 | 1007.0 |
| 20260505233218 | 50 | 42 | 0.0 | 4.0 | 0.02 | 0.78 | 0.78 | 98 | 1007.0 |
| 20260505232715 | 50 | 330 | 1.0 | 3.0 | 0.02 | 0.78 | 0.78 | 98 | 1006.9 |
| 20260505232212 | 50 | 48 | 3.0 | 4.0 | 0.02 | 0.78 | 0.78 | 98 | 1007.2 |
| 20260505231709 | 50 | 72 | 3.0 | 5.0 | 0.02 | 0.78 | 0.78 | 98 | 1007.3 |
| 20260505231208 | 50 | 62 | 0.0 | 5.0 | 0.02 | 0.78 | 0.78 | 98 | 1007.1 |
| 20260505230706 | 50 | 42 | 2.0 | 3.0 | 0.05 | 0.78 | 0.78 | 97 | 1007.0 |
| 20260505230202 | 50 | 7 | 0.0 | 3.0 | 0.21 | 0.77 | 0.77 | 97 | 1007.5 |
| 20260505225658 | 50 | 33 | 2.0 | 2.0 | 0.31 | 0.76 | 0.76 | 97 | 1007.8 |
| 20260505225155 | 50 | 345 | 0.0 | 4.0 | 0.28 | 0.73 | 0.73 | 97 | 1007.9 |
| 20260505224651 | 50 | 359 | 2.0 | 4.0 | 0.28 | 0.71 | 0.71 | 97 | 1007.8 |
| 20260505224149 | 50 | 16 | 2.0 | 3.0 | 0.14 | 0.69 | 0.69 | 97 | 1007.7 |
| 20260505223646 | 50 | 26 | 2.0 | 3.0 | 0.09 | 0.67 | 0.67 | 97 | 1007.7 |
| 20260505223142 | 50 | 349 | 2.0 | 3.0 | 0.19 | 0.66 | 0.66 | 97 | 1007.7 |
| 20260505222638 | 50 | 195 | 0.0 | 4.0 | 0.17 | 0.65 | 0.65 | 97 | 1007.9 |
| 20260505222135 | 50 | 353 | 2.0 | 6.0 | 0.09 | 0.63 | 0.63 | 97 | 1007.3 |
| 20260505221632 | 50 | 50 | 1.0 | 7.0 | 0.12 | 0.62 | 0.62 | 97 | 1007.1 |
| 20260505221128 | 51 | 358 | 1.0 | 5.0 | 0.12 | 0.61 | 0.61 | 97 | 1007.3 |
| 20260505220626 | 50 | 335 | 0.0 | 3.0 | 0.19 | 0.60 | 0.60 | 97 | 1007.4 |
| 20260505220123 | 51 | 349 | 3.0 | 7.0 | 0.28 | 0.59 | 0.59 | 97 | 1007.4 |
| 20260505215621 | 51 | 219 | 2.0 | 5.0 | 0.28 | 0.57 | 0.57 | 97 | 1007.3 |
| 20260505215119 | 51 | 92 | 1.0 | 5.0 | 0.17 | 0.54 | 0.54 | 97 | 1007.6 |
| 20260505214617 | 51 | 340 | 2.0 | 3.0 | 0.09 | 0.52 | 0.52 | 97 | 1007.2 |
| 20260505214113 | 51 | 349 | 0.0 | 3.0 | 0.12 | 0.52 | 0.52 | 97 | 1006.8 |
| 20260505213611 | 51 | 205 | 1.0 | 3.0 | 0.21 | 0.51 | 0.51 | 97 | 1007.0 |
| 20260505213107 | 51 | 201 | 3.0 | 7.0 | 0.14 | 0.49 | 0.49 | 96 | 1007.0 |
| 20260505212603 | 52 | 352 | 2.0 | 6.0 | 0.07 | 0.47 | 0.47 | 97 | 1007.1 |
| 20260505212102 | 53 | 243 | 2.0 | 6.0 | 0.07 | 0.47 | 0.47 | 96 | 1006.7 |
| 20260505211558 | 53 | 312 | 2.0 | 4.0 | 0.14 | 0.46 | 0.46 | 97 | 1006.9 |
| 20260505211055 | 53 | 13 | 1.0 | 5.0 | 0.14 | 0.45 | 0.45 | 97 | 1006.7 |
| 20260505210551 | 53 | 219 | 1.0 | 5.0 | 0.19 | 0.44 | 0.44 | 96 | 1006.8 |
| 20260505210049 | 53 | 88 | 1.0 | 4.0 | 0.17 | 0.42 | 0.42 | 96 | 1006.9 |
| 20260505205546 | 53 | 326 | 2.0 | 5.0 | 0.17 | 0.41 | 0.41 | 96 | 1006.9 |
| 20260505205044 | 53 | 296 | 1.0 | 5.0 | 0.17 | 0.40 | 0.40 | 96 | 1006.8 |
| 20260505204541 | 53 | 36 | 2.0 | 6.0 | 0.12 | 0.38 | 0.38 | 96 | 1007.1 |
| 20260505204038 | 53 | 302 | 1.0 | 4.0 | 0.24 | 0.37 | 0.37 | 96 | 1007.1 |
| 20260505203535 | 54 | 330 | 3.0 | 5.0 | 0.24 | 0.36 | 0.36 | 96 | 1007.2 |
| 20260505203032 | 56 | 223 | 2.0 | 6.0 | 0.19 | 0.33 | 0.33 | 95 | 1007.0 |
| 20260505202528 | 57 | 247 | 1.0 | 6.0 | 0.21 | 0.32 | 0.32 | 96 | 1006.8 |
| 20260505202024 | 57 | 201 | 1.0 | 5.0 | 0.09 | 0.29 | 0.29 | 96 | 1006.6 |
| 20260505201521 | 57 | 203 | 1.0 | 4.0 | 0.09 | 0.28 | 0.28 | 96 | 1006.8 |
| 20260505201018 | 57 | 195 | 0.0 | 6.0 | 0.09 | 0.28 | 0.28 | 95 | 1006.8 |
| 20260505200516 | 57 | 240 | 0.0 | 5.0 | 0.05 | 0.27 | 0.27 | 95 | 1006.9 |
| 20260505200013 | 57 | 228 | 2.0 | 4.0 | 0.09 | 0.26 | 0.26 | 95 | 1006.9 |
| 20260505195509 | 58 | 205 | 1.0 | 4.0 | 0.09 | 0.26 | 0.26 | 95 | 1006.9 |
| 20260505195007 | 58 | 251 | 1.0 | 3.0 | 0.14 | 0.25 | 0.25 | 95 | 1006.9 |
| 20260505194504 | 57 | 17 | 0.0 | 2.0 | 0.17 | 0.24 | 0.24 | 94 | 1006.9 |
| 20260505194004 | 58 | 242 | 0.0 | 2.0 | 0.26 | 0.22 | 0.22 | 94 | 1007.0 |
| 20260505193502 | 58 | 207 | 1.0 | 3.0 | 0.31 | 0.21 | 0.21 | 94 | 1007.0 |
| 20260505192959 | 58 | 76 | 1.0 | 2.0 | 0.31 | 0.18 | 0.18 | 93 | 1006.8 |
| 20260505192457 | 58 | 211 | 0.0 | 2.0 | 0.38 | 0.16 | 0.16 | 93 | 1007.0 |
| 20260505191954 | 58 | 177 | 0.0 | 3.0 | 0.33 | 0.13 | 0.13 | 93 | 1007.1 |
| 20260505191453 | 58 | 205 | 1.0 | 3.0 | 0.26 | 0.10 | 0.10 | 92 | 1007.0 |
| 20260505190950 | 58 | 163 | 1.0 | 3.0 | 0.19 | 0.07 | 0.07 | 91 | 1006.8 |
| 20260505190444 | 58 | 226 | 1.0 | 4.0 | 0.09 | 0.06 | 0.06 | 91 | 1007.0 |
| 20260505185940 | 59 | 201 | 2.0 | 2.0 | 0.05 | 0.04 | 0.04 | 90 | 1006.9 |
| 20260505185438 | 59 | 235 | 0.0 | 2.0 | 0.09 | 0.04 | 0.04 | 89 | 1007.0 |
| 20260505184934 | 59 | 224 | 2.0 | 3.0 | 0.12 | 0.04 | 0.04 | 88 | 1006.9 |
| 20260505184431 | 59 | 215 | 2.0 | 5.0 | 0.12 | 0.02 | 0.02 | 86 | 1007.0 |
| 20260505183927 | 59 | 250 | 1.0 | 7.0 | 0.09 | 0.02 | 0.02 | 84 | 1007.2 |
| 20260505183424 | 60 | 214 | 5.0 | 10.0 | 0.02 | 0.00 | 0.00 | 80 | 1007.1 |
| 20260505182921 | 61 | 214 | 1.0 | 7.0 | 0.00 | 0.00 | 0.00 | 79 | 1006.9 |
| 20260505182418 | 61 | 221 | 2.0 | 9.0 | 0.00 | 0.00 | 0.00 | 78 | 1007.0 |
| 20260505181914 | 62 | 219 | 6.0 | 10.0 | 0.00 | 0.00 | 0.00 | 77 | 1006.7 |
| 20260505181412 | 62 | 219 | 4.0 | 9.0 | 0.00 | 0.00 | 0.00 | 76 | 1006.8 |
| 20260505180908 | 62 | 223 | 3.0 | 11.0 | 0.00 | 0.00 | 0.00 | 75 | 1006.8 |
| 20260505180405 | 62 | 194 | 3.0 | 13.0 | 0.00 | 0.00 | 0.00 | 75 | 1006.9 |
| 20260505175901 | 62 | 41 | 3.0 | 10.0 | 0.00 | 0.00 | 0.00 | 74 | 1006.7 |
| 20260505175358 | 63 | 228 | 5.0 | 11.0 | 0.00 | 0.00 | 0.00 | 73 | 1006.9 |
| 20260505174854 | 63 | 358 | 4.0 | 10.0 | 0.00 | 0.00 | 0.00 | 73 | 1006.7 |
| 20260505174352 | 64 | 33 | 2.0 | 6.0 | 0.00 | 0.00 | 0.00 | 72 | 1006.9 |
| 20260505173848 | 64 | 273 | 3.0 | 5.0 | 0.00 | 0.00 | 0.00 | 72 | 1006.6 |
| 20260505173345 | 64 | 249 | 3.0 | 9.0 | 0.00 | 0.00 | 0.00 | 70 | 1006.6 |
| 20260505172842 | 65 | 213 | 3.0 | 10.0 | 0.00 | 0.00 | 0.00 | 71 | 1006.6 |
| 20260505172339 | 64 | 237 | 2.0 | 9.0 | 0.00 | 0.00 | 0.00 | 70 | 1006.6 |
| 20260505171839 | 64 | 203 | 2.0 | 10.0 | 0.00 | 0.00 | 0.00 | 71 | 1006.5 |
| 20260505171336 | 64 | 207 | 3.0 | 9.0 | 0.00 | 0.00 | 0.00 | 71 | 1006.7 |
| 20260505170833 | 63 | 212 | 4.0 | 11.0 | 0.00 | 0.00 | 0.00 | 72 | 1006.5 |
| 20260505170330 | 64 | 213 | 4.0 | 13.0 | 0.00 | 0.00 | 0.00 | 71 | 1006.5 |
| 20260505165825 | 64 | 215 | 0.0 | 9.0 | 0.00 | 0.00 | 0.00 | 71 | 1006.6 |
| 20260505165321 | 64 | 229 | 5.0 | 11.0 | 0.00 | 0.00 | 0.00 | 71 | 1006.6 |
| 20260505164817 | 64 | 353 | 4.0 | 12.0 | 0.00 | 0.00 | 0.00 | 70 | 1006.5 |
| 20260505164314 | 64 | 232 | 3.0 | 4.0 | 0.00 | 0.00 | 0.00 | 69 | 1006.6 |
| 20260505163812 | 65 | 245 | 5.0 | 13.0 | 0.00 | 0.00 | 0.00 | 68 | 1006.4 |
| 20260505163310 | 65 | 214 | 5.0 | 9.0 | 0.00 | 0.00 | 0.00 | 67 | 1006.4 |
| 20260505162808 | 65 | 224 | 2.0 | 6.0 | 0.00 | 0.00 | 0.00 | 68 | 1006.3 |
| 20260505162306 | 65 | 212 | 3.0 | 5.0 | 0.00 | 0.00 | 0.00 | 67 | 1006.4 |
| 20260505161802 | 65 | 4 | 4.0 | 8.0 | 0.00 | 0.00 | 0.00 | 67 | 1006.3 |
| 20260505161259 | 65 | 169 | 3.0 | 7.0 | 0.00 | 0.00 | 0.00 | 67 | 1006.3 |
| 20260505160756 | 65 | 20 | 0.0 | 15.0 | 0.00 | 0.00 | 0.00 | 66 | 1006.5 |
| 20260505160254 | 65 | 214 | 3.0 | 8.0 | 0.00 | 0.00 | 0.00 | 66 | 1006.4 |
| 20260505153233 | 69 | 216 | 6.0 | 11.0 | 0.00 | 0.00 | 0.00 | 61 | 1005.9 |
| 20260505152730 | 68 | 235 | 4.0 | 7.0 | 0.00 | 0.00 | 0.00 | 62 | 1005.7 |
| 20260505152226 | 69 | 187 | 1.0 | 7.0 | 0.00 | 0.00 | 0.00 | 63 | 1005.6 |
| 20260505151720 | 69 | 223 | 3.0 | 7.0 | 0.00 | 0.00 | 0.00 | 62 | 1005.5 |
| 20260505151218 | 68 | 201 | 1.0 | 9.0 | 0.00 | 0.00 | 0.00 | 62 | 1005.2 |
| 20260505150715 | 68 | 209 | 3.0 | 7.0 | 0.00 | 0.00 | 0.00 | 61 | 1005.0 |
| 20260505150212 | 68 | 207 | 1.0 | 6.0 | 0.00 | 0.00 | 0.00 | 63 | 1005.0 |
| 20260505140645 | 65 | 267 | 6.0 | 11.0 | 0.00 | 0.00 | 0.00 | 65 | 1005.1 |
| 20260505140142 | 65 | 204 | 3.0 | 15.0 | 0.00 | 0.00 | 0.00 | 65 | 1005.1 |
| 20260505130106 | 63 | 191 | 1.0 | 3.0 | 0.00 | 0.00 | 0.00 | 72 | 1004.7 |
| 20260505124555 | 62 | 216 | 3.0 | 7.0 | 0.00 | 0.00 | 0.00 | 71 | 1005.0 |
| 20260505124051 | 62 | 225 | 1.0 | 6.0 | 0.00 | 0.00 | 0.00 | 72 | 1005.1 |
| 20260505123548 | 62 | 187 | 1.0 | 7.0 | 0.00 | 0.00 | 0.00 | 71 | 1004.8 |
| 20260505123044 | 62 | 183 | 2.0 | 8.0 | 0.00 | 0.00 | 0.00 | 71 | 1004.8 |
| 20260505122541 | 62 | 230 | 3.0 | 10.0 | 0.00 | 0.00 | 0.00 | 71 | 1004.8 |
| 20260505122038 | 62 | 200 | 5.0 | 8.0 | 0.00 | 0.00 | 0.00 | 70 | 1004.8 |
| 20260505121535 | 62 | 67 | 3.0 | 9.0 | 0.00 | 0.00 | 0.00 | 70 | 1004.7 |
| 20260505121032 | 62 | 17 | 1.0 | 4.0 | 0.00 | 0.00 | 0.00 | 71 | 1004.6 |
| 20260505120528 | 62 | 303 | 1.0 | 11.0 | 0.00 | 0.00 | 0.00 | 70 | 1004.3 |
| 20260505120023 | 62 | 248 | 2.0 | 6.0 | 0.00 | 0.00 | 0.00 | 71 | 1004.2 |
| 20260505115518 | 62 | 229 | 0.0 | 8.0 | 0.00 | 0.00 | 0.00 | 71 | 1003.9 |
| 20260505115016 | 62 | 242 | 0.0 | 5.0 | 0.00 | 0.00 | 0.00 | 71 | 1004.0 |
| 20260505114513 | 62 | 78 | 3.0 | 6.0 | 0.00 | 0.00 | 0.00 | 71 | 1003.6 |
| 20260505114009 | 61 | 224 | 2.0 | 5.0 | 0.00 | 0.00 | 0.00 | 72 | 1003.4 |
| 20260505113506 | 62 | 188 | 1.0 | 3.0 | 0.00 | 0.00 | 0.00 | 71 | 1002.9 |
| 20260505113001 | 62 | 212 | 3.0 | 5.0 | 0.00 | 0.00 | 0.00 | 71 | 1003.1 |
| 20260505112459 | 62 | 284 | 1.0 | 7.0 | 0.00 | 0.00 | 0.00 | 70 | 1003.1 |
| 20260505111956 | 62 | 202 | 7.0 | 7.0 | 0.00 | 0.00 | 0.00 | 70 | 1003.0 |
| 20260505111456 | 62 | 89 | 0.0 | 9.0 | 0.00 | 0.00 | 0.00 | 70 | 1002.9 |
| 20260505110952 | 62 | 204 | 4.0 | 9.0 | 0.00 | 0.00 | 0.00 | 69 | 1003.2 |
| 20260505110449 | 62 | 154 | 2.0 | 10.0 | 0.00 | 0.00 | 0.00 | 69 | 1003.1 |